Time,TemperatureF,DewpointF,PressureIn,WindDirection,WindDirectionDegrees,WindSpeedMPH,WindSpeedGustMPH,Humidity,HourlyPrecipIn,Conditions,Clouds,dailyrainin,SoftwareType,DateUTC
2013-03-27 00:03:00,32.0,-99.9,-100.00,SW,217,5.0,-999.0,-999,0.00,,,0.00,,2013-03-27 05:03:00,
2013-03-27 00:13:00,32.0,-99.9,-100.00,SW,217,5.0,-999.0,-999,0.00,,,0.00,,2013-03-27 05:13:00,
2013-03-27 00:23:00,32.0,-99.9,-100.00,SW,217,5.0,-999.0,-999,0.00,,,0.00,,2013-03-27 05:23:00,
2013-03-27 00:33:00,32.0,-99.9,-100.00,SW,218,5.0,-999.0,-999,0.00,,,0.00,,2013-03-27 05:33:00,
2013-03-27 00:42:00,32.0,-99.9,-100.00,SW,218,5.0,-999.0,-999,0.00,,,0.00,,2013-03-27 05:42:00,
2013-03-27 00:53:00,32.0,-99.9,-100.00,SW,218,5.0,-999.0,-999,0.00,,,0.00,,2013-03-27 05:53:00,
2013-03-27 01:02:00,32.0,-99.9,-100.00,SW,226,5.0,-999.0,-999,0.00,,,0.00,,2013-03-27 06:02:00,
2013-03-27 01:12:00,32.0,-99.9,-100.00,SW,226,5.0,-999.0,-999,0.00,,,0.00,,2013-03-27 06:12:00,
2013-03-27 01:23:00,32.0,-99.9,-100.00,SW,226,5.0,-999.0,-999,0.00,,,0.00,,2013-03-27 06:23:00,
2013-03-27 01:32:00,32.0,-99.9,-100.00,WSW,245,4.0,-999.0,-999,0.00,,,0.00,,2013-03-27 06:32:00,
2013-03-27 01:43:00,32.0,-99.9,-100.00,WSW,245,4.0,-999.0,-999,0.00,,,0.00,,2013-03-27 06:43:00,
2013-03-27 01:53:00,32.0,-99.9,-100.00,WSW,245,4.0,-999.0,-999,0.00,,,0.00,,2013-03-27 06:53:00,
2013-03-27 02:02:00,32.0,-99.9,-100.00,WSW,244,5.0,-999.0,-999,0.00,,,0.00,,2013-03-27 07:02:00,
2013-03-27 02:12:00,32.0,-99.9,-100.00,WSW,244,5.0,-999.0,-999,0.00,,,0.00,,2013-03-27 07:12:00,
2013-03-27 02:22:00,32.0,-99.9,-100.00,WSW,244,5.0,-999.0,-999,0.00,,,0.00,,2013-03-27 07:22:00,
2013-03-27 02:33:00,32.0,-99.9,-100.00,WSW,238,5.0,-999.0,-999,0.00,,,0.00,,2013-03-27 07:33:00,
2013-03-27 02:43:00,32.0,-99.9,-100.00,WSW,238,5.0,-999.0,-999,0.00,,,0.00,,2013-03-27 07:43:00,
2013-03-27 02:54:00,32.0,-99.9,-100.00,WSW,238,5.0,-999.0,-999,0.00,,,0.00,,2013-03-27 07:54:00,
2013-03-27 03:03:00,30.0,-99.9,-100.00,SSE,158,2.0,-999.0,-999,0.00,,,0.00,,2013-03-27 08:03:00,
2013-03-27 03:13:00,30.0,-99.9,-100.00,SSE,158,2.0,-999.0,-999,0.00,,,0.00,,2013-03-27 08:13:00,
2013-03-27 03:22:00,30.0,-99.9,-100.00,SSE,158,2.0,-999.0,-999,0.00,,,0.00,,2013-03-27 08:22:00,
2013-03-27 03:32:00,28.0,-99.9,-100.00,South,186,2.0,-999.0,-999,0.00,,,0.00,,2013-03-27 08:32:00,
2013-03-27 03:43:00,28.0,-99.9,-100.00,South,186,2.0,-999.0,-999,0.00,,,0.00,,2013-03-27 08:43:00,
2013-03-27 03:52:00,28.0,-99.9,-100.00,South,186,2.0,-999.0,-999,0.00,,,0.00,,2013-03-27 08:52:00,
2013-03-27 04:02:00,27.0,-99.9,-100.00,WSW,246,4.0,-999.0,-999,0.00,,,0.00,,2013-03-27 09:02:00,
2013-03-27 04:12:00,27.0,-99.9,-100.00,WSW,246,4.0,-999.0,-999,0.00,,,0.00,,2013-03-27 09:12:00,
2013-03-27 04:22:00,27.0,-99.9,-100.00,WSW,246,4.0,-999.0,-999,0.00,,,0.00,,2013-03-27 09:22:00,
2013-03-27 04:33:00,28.0,-99.9,-100.00,SSW,209,3.0,-999.0,-999,0.00,,,0.00,,2013-03-27 09:33:00,
2013-03-27 04:42:00,28.0,-99.9,-100.00,SSW,209,3.0,-999.0,-999,0.00,,,0.00,,2013-03-27 09:42:00,
2013-03-27 04:52:00,28.0,-99.9,-100.00,SSW,209,3.0,-999.0,-999,0.00,,,0.00,,2013-03-27 09:52:00,
2013-03-27 05:03:00,27.0,-99.9,-100.00,SW,234,3.0,-999.0,-999,0.00,,,0.00,,2013-03-27 10:03:00,
2013-03-27 05:13:00,27.0,-99.9,-100.00,SW,234,3.0,-999.0,-999,0.00,,,0.00,,2013-03-27 10:13:00,
2013-03-27 05:23:00,27.0,-99.9,-100.00,SW,234,3.0,-999.0,-999,0.00,,,0.00,,2013-03-27 10:23:00,
2013-03-27 05:32:00,28.0,-99.9,-100.00,SSW,208,1.0,-999.0,-999,0.00,,,0.00,,2013-03-27 10:32:00,
2013-03-27 05:42:00,28.0,-99.9,-100.00,SSW,208,1.0,-999.0,-999,0.00,,,0.00,,2013-03-27 10:42:00,
2013-03-27 05:53:00,28.0,-99.9,-100.00,SSW,208,1.0,-999.0,-999,0.00,,,0.00,,2013-03-27 10:53:00,
2013-03-27 06:03:00,27.0,-99.9,-100.00,SW,226,2.0,-999.0,-999,0.00,,,0.00,,2013-03-27 11:03:00,
2013-03-27 06:12:00,27.0,-99.9,-100.00,SW,226,2.0,-999.0,-999,0.00,,,0.00,,2013-03-27 11:12:00,
2013-03-27 06:23:00,27.0,-99.9,-100.00,SW,226,2.0,-999.0,-999,0.00,,,0.00,,2013-03-27 11:23:00,
2013-03-27 06:32:00,27.0,-99.9,-100.00,SSW,208,2.0,-999.0,-999,0.00,,,0.00,,2013-03-27 11:32:00,
2013-03-27 06:43:00,27.0,-99.9,-100.00,SSW,208,2.0,-999.0,-999,0.00,,,0.00,,2013-03-27 11:43:00,
2013-03-27 06:53:00,27.0,-99.9,-100.00,SSW,208,2.0,-999.0,-999,0.00,,,0.00,,2013-03-27 11:53:00,
2013-03-27 07:03:00,27.0,-99.9,-100.00,West,262,3.0,-999.0,-999,0.00,,,0.00,,2013-03-27 12:03:00,
2013-03-27 07:12:00,27.0,-99.9,-100.00,West,262,3.0,-999.0,-999,0.00,,,0.00,,2013-03-27 12:12:00,
2013-03-27 07:23:00,27.0,-99.9,-100.00,West,262,3.0,-999.0,-999,0.00,,,0.00,,2013-03-27 12:23:00,
2013-03-27 07:32:00,26.0,-99.9,-100.00,WSW,241,3.0,-999.0,-999,0.00,,,0.00,,2013-03-27 12:32:00,
2013-03-27 07:44:00,26.0,-99.9,-100.00,WSW,241,3.0,-999.0,-999,0.00,,,0.00,,2013-03-27 12:44:00,
2013-03-27 07:52:00,26.0,-99.9,-100.00,WSW,241,3.0,-999.0,-999,0.00,,,0.00,,2013-03-27 12:52:00,
2013-03-27 08:02:00,27.0,-99.9,-100.00,South,190,3.0,-999.0,-999,0.00,,,0.00,,2013-03-27 13:02:00,
2013-03-27 08:12:00,27.0,-99.9,-100.00,South,190,3.0,-999.0,-999,0.00,,,0.00,,2013-03-27 13:12:00,
2013-03-27 08:23:00,27.0,-99.9,-100.00,South,190,3.0,-999.0,-999,0.00,,,0.00,,2013-03-27 13:23:00,
2013-03-27 08:33:00,30.0,-99.9,-100.00,NNW,336,4.0,-999.0,-999,0.00,,,0.00,,2013-03-27 13:33:00,
2013-03-27 08:42:00,30.0,-99.9,-100.00,NNW,336,4.0,-999.0,-999,0.00,,,0.00,,2013-03-27 13:42:00,
2013-03-27 08:53:00,30.0,-99.9,-100.00,NNW,336,4.0,-999.0,-999,0.00,,,0.00,,2013-03-27 13:53:00,
2013-03-27 09:02:00,34.0,-99.9,-100.00,North,8,3.0,-999.0,-999,0.00,,,0.00,,2013-03-27 14:02:00,
2013-03-27 09:12:00,34.0,-99.9,-100.00,North,8,3.0,-999.0,-999,0.00,,,0.00,,2013-03-27 14:12:00,
2013-03-27 09:22:00,34.0,-99.9,-100.00,North,8,3.0,-999.0,-999,0.00,,,0.00,,2013-03-27 14:22:00,
2013-03-27 09:32:00,35.0,-99.9,-100.00,North,3,3.0,-999.0,-999,0.00,,,0.00,,2013-03-27 14:32:00,
2013-03-27 09:43:00,35.0,-99.9,-100.00,North,3,3.0,-999.0,-999,0.00,,,0.00,,2013-03-27 14:43:00,
2013-03-27 09:52:00,35.0,-99.9,-100.00,North,3,3.0,-999.0,-999,0.00,,,0.00,,2013-03-27 14:52:00,
2013-03-27 10:03:00,36.0,-99.9,-100.00,North,7,5.0,-999.0,-999,0.00,,,0.00,,2013-03-27 15:03:00,
2013-03-27 10:12:00,36.0,-99.9,-100.00,North,7,5.0,-999.0,-999,0.00,,,0.00,,2013-03-27 15:12:00,
2013-03-27 10:23:00,36.0,-99.9,-100.00,North,7,5.0,-999.0,-999,0.00,,,0.00,,2013-03-27 15:23:00,
2013-03-27 10:33:00,38.0,-99.9,-100.00,North,4,4.0,-999.0,-999,0.00,,,0.00,,2013-03-27 15:33:00,
2013-03-27 10:43:00,38.0,-99.9,-100.00,North,4,4.0,-999.0,-999,0.00,,,0.00,,2013-03-27 15:43:00,
2013-03-27 10:53:00,38.0,-99.9,-100.00,North,4,4.0,-999.0,-999,0.00,,,0.00,,2013-03-27 15:53:00,
2013-03-27 11:00:00,41.0,-99.9,-100.00,NNE,22,6.0,-999.0,-999,0.00,,,0.00,,2013-03-27 16:00:00,
2013-03-27 11:03:00,39.0,-99.9,-100.00,North,8,4.0,-999.0,-999,0.00,,,0.00,,2013-03-27 16:03:00,
2013-03-27 11:13:00,39.0,-99.9,-100.00,North,8,4.0,-999.0,-999,0.00,,,0.00,,2013-03-27 16:13:00,
2013-03-27 11:23:00,39.0,-99.9,-100.00,North,8,4.0,-999.0,-999,0.00,,,0.00,,2013-03-27 16:23:00,
2013-03-27 11:30:00,41.0,-99.9,-100.00,NE,42,6.0,-999.0,-999,0.00,,,0.00,,2013-03-27 16:30:00,
2013-03-27 11:33:00,41.0,-99.9,-100.00,NNE,22,6.0,-999.0,-999,0.00,,,0.00,,2013-03-27 16:33:00,
2013-03-27 11:42:00,41.0,-99.9,-100.00,NNE,22,6.0,-999.0,-999,0.00,,,0.00,,2013-03-27 16:42:00,
2013-03-27 11:52:00,41.0,-99.9,-100.00,NNE,22,6.0,-999.0,-999,0.00,,,0.00,,2013-03-27 16:52:00,
2013-03-27 12:12:00,41.0,-99.9,-100.00,NE,42,6.0,-999.0,-999,0.00,,,0.00,,2013-03-27 17:12:00,
2013-03-27 12:23:00,41.0,-99.9,-100.00,NE,42,6.0,-999.0,-999,0.00,,,0.00,,2013-03-27 17:23:00,
2013-03-27 13:03:00,41.0,-99.9,-100.00,South,182,1.0,-999.0,-999,0.00,,,0.00,,2013-03-27 18:03:00,
2013-03-27 13:12:00,41.0,-99.9,-100.00,South,182,1.0,-999.0,-999,0.00,,,0.00,,2013-03-27 18:12:00,
2013-03-27 13:23:00,41.0,-99.9,-100.00,South,182,1.0,-999.0,-999,0.00,,,0.00,,2013-03-27 18:23:00,
2013-03-27 13:33:00,41.0,-99.9,-100.00,NNW,338,6.0,-999.0,-999,0.00,,,0.00,,2013-03-27 18:33:00,
2013-03-27 13:42:00,41.0,-99.9,-100.00,NNW,338,6.0,-999.0,-999,0.00,,,0.00,,2013-03-27 18:42:00,
2013-03-27 13:53:00,41.0,-99.9,-100.00,NNW,338,6.0,-999.0,-999,0.00,,,0.00,,2013-03-27 18:53:00,
2013-03-27 14:03:00,44.0,-99.9,-100.00,NNE,33,5.0,-999.0,-999,0.00,,,0.00,,2013-03-27 19:03:00,
2013-03-27 14:12:00,44.0,-99.9,-100.00,NNE,33,5.0,-999.0,-999,0.00,,,0.00,,2013-03-27 19:12:00,
2013-03-27 14:22:00,44.0,-99.9,-100.00,NNE,33,5.0,-999.0,-999,0.00,,,0.00,,2013-03-27 19:22:00,
2013-03-27 14:32:00,45.0,-99.9,-100.00,NNE,20,6.0,-999.0,-999,0.00,,,0.00,,2013-03-27 19:32:00,
2013-03-27 14:42:00,45.0,-99.9,-100.00,NNE,20,6.0,-999.0,-999,0.00,,,0.00,,2013-03-27 19:42:00,
2013-03-27 14:52:00,45.0,-99.9,-100.00,NNE,20,6.0,-999.0,-999,0.00,,,0.00,,2013-03-27 19:52:00,
2013-03-27 15:03:00,43.0,-99.9,-100.00,ESE,117,3.0,-999.0,-999,0.00,,,0.00,,2013-03-27 20:03:00,
2013-03-27 15:12:00,43.0,-99.9,-100.00,ESE,117,3.0,-999.0,-999,0.00,,,0.00,,2013-03-27 20:12:00,
2013-03-27 15:22:00,43.0,-99.9,-100.00,ESE,117,3.0,-999.0,-999,0.00,,,0.00,,2013-03-27 20:22:00,
2013-03-27 15:32:00,45.0,-99.9,-100.00,ESE,104,5.0,-999.0,-999,0.00,,,0.00,,2013-03-27 20:32:00,
2013-03-27 15:43:00,45.0,-99.9,-100.00,ESE,104,5.0,-999.0,-999,0.00,,,0.00,,2013-03-27 20:43:00,
2013-03-27 15:53:00,45.0,-99.9,-100.00,ESE,104,5.0,-999.0,-999,0.00,,,0.00,,2013-03-27 20:53:00,
2013-03-27 16:00:00,46.0,-99.9,-100.00,East,89,4.0,-999.0,-999,0.00,,,0.00,,2013-03-27 21:00:00,
2013-03-27 16:03:00,45.0,-99.9,-100.00,ESE,111,5.0,-999.0,-999,0.00,,,0.00,,2013-03-27 21:03:00,
2013-03-27 16:12:00,45.0,-99.9,-100.00,ESE,111,5.0,-999.0,-999,0.00,,,0.00,,2013-03-27 21:12:00,
2013-03-27 16:23:00,45.0,-99.9,-100.00,ESE,111,5.0,-999.0,-999,0.00,,,0.00,,2013-03-27 21:23:00,
2013-03-27 16:33:00,46.0,-99.9,-100.00,East,89,4.0,-999.0,-999,0.00,,,0.00,,2013-03-27 21:33:00,
2013-03-27 16:44:00,46.0,-99.9,-100.00,East,89,4.0,-999.0,-999,0.00,,,0.00,,2013-03-27 21:44:00,
2013-03-27 16:52:00,46.0,-99.9,-100.00,East,89,4.0,-999.0,-999,0.00,,,0.00,,2013-03-27 21:52:00,
2013-03-27 17:12:00,47.0,-99.9,-100.00,ESE,102,4.0,-999.0,-999,0.00,,,0.00,,2013-03-27 22:12:00,
2013-03-27 17:24:00,47.0,-99.9,-100.00,ESE,102,4.0,-999.0,-999,0.00,,,0.00,,2013-03-27 22:24:00,
2013-03-27 17:33:00,44.0,-99.9,-100.00,SE,146,6.0,-999.0,-999,0.00,,,0.00,,2013-03-27 22:33:00,
2013-03-27 17:43:00,44.0,-99.9,-100.00,SE,146,6.0,-999.0,-999,0.00,,,0.00,,2013-03-27 22:43:00,
2013-03-27 17:53:00,44.0,-99.9,-100.00,SE,146,6.0,-999.0,-999,0.00,,,0.00,,2013-03-27 22:53:00,
2013-03-27 18:03:00,44.0,-99.9,-100.00,SE,139,6.0,-999.0,-999,0.00,,,0.00,,2013-03-27 23:03:00,
2013-03-27 18:12:00,44.0,-99.9,-100.00,SE,139,6.0,-999.0,-999,0.00,,,0.00,,2013-03-27 23:12:00,
2013-03-27 18:22:00,44.0,-99.9,-100.00,SE,139,6.0,-999.0,-999,0.00,,,0.00,,2013-03-27 23:22:00,
2013-03-27 18:32:00,45.0,-99.9,-100.00,SE,131,5.0,-999.0,-999,0.00,,,0.00,,2013-03-27 23:32:00,
2013-03-27 18:43:00,45.0,-99.9,-100.00,SE,131,5.0,-999.0,-999,0.00,,,0.00,,2013-03-27 23:43:00,
2013-03-27 18:52:00,45.0,-99.9,-100.00,SE,131,5.0,-999.0,-999,0.00,,,0.00,,2013-03-27 23:52:00,
2013-03-27 19:03:00,43.0,-99.9,-100.00,SSW,193,3.0,-999.0,-999,0.00,,,0.00,,2013-03-28 00:03:00,
2013-03-27 19:12:00,43.0,-99.9,-100.00,SSW,193,3.0,-999.0,-999,0.00,,,0.00,,2013-03-28 00:12:00,
2013-03-27 19:23:00,43.0,-99.9,-100.00,SSW,193,3.0,-999.0,-999,0.00,,,0.00,,2013-03-28 00:23:00,
2013-03-27 19:33:00,42.0,-99.9,-100.00,SE,138,5.0,-999.0,-999,0.00,,,0.00,,2013-03-28 00:33:00,
2013-03-27 19:43:00,42.0,-99.9,-100.00,SE,138,5.0,-999.0,-999,0.00,,,0.00,,2013-03-28 00:43:00,
2013-03-27 19:52:00,42.0,-99.9,-100.00,SE,138,5.0,-999.0,-999,0.00,,,0.00,,2013-03-28 00:52:00,
2013-03-27 20:03:00,39.0,-99.9,-100.00,South,173,4.0,-999.0,-999,0.00,,,0.00,,2013-03-28 01:03:00,
2013-03-27 20:12:00,39.0,-99.9,-100.00,South,173,4.0,-999.0,-999,0.00,,,0.00,,2013-03-28 01:12:00,
2013-03-27 20:22:00,39.0,-99.9,-100.00,South,173,4.0,-999.0,-999,0.00,,,0.00,,2013-03-28 01:22:00,
2013-03-27 20:32:00,37.0,-99.9,-100.00,WSW,242,4.0,-999.0,-999,0.00,,,0.00,,2013-03-28 01:32:00,
2013-03-27 20:43:00,37.0,-99.9,-100.00,WSW,242,4.0,-999.0,-999,0.00,,,0.00,,2013-03-28 01:43:00,
2013-03-27 20:53:00,37.0,-99.9,-100.00,WSW,242,4.0,-999.0,-999,0.00,,,0.00,,2013-03-28 01:53:00,
2013-03-27 21:03:00,39.0,-99.9,-100.00,South,186,4.0,-999.0,-999,0.00,,,0.00,,2013-03-28 02:03:00,
2013-03-27 21:12:00,39.0,-99.9,-100.00,South,186,4.0,-999.0,-999,0.00,,,0.00,,2013-03-28 02:12:00,
2013-03-27 21:23:00,39.0,-99.9,-100.00,South,186,4.0,-999.0,-999,0.00,,,0.00,,2013-03-28 02:23:00,
2013-03-27 21:33:00,38.0,-99.9,-100.00,SSW,194,3.0,-999.0,-999,0.00,,,0.00,,2013-03-28 02:33:00,
2013-03-27 21:42:00,38.0,-99.9,-100.00,SSW,194,3.0,-999.0,-999,0.00,,,0.00,,2013-03-28 02:42:00,
2013-03-27 21:52:00,38.0,-99.9,-100.00,SSW,194,3.0,-999.0,-999,0.00,,,0.00,,2013-03-28 02:52:00,
2013-03-27 22:03:00,38.0,-99.9,-100.00,South,174,4.0,-999.0,-999,0.00,,,0.00,,2013-03-28 03:03:00,
2013-03-27 22:12:00,38.0,-99.9,-100.00,South,174,4.0,-999.0,-999,0.00,,,0.00,,2013-03-28 03:12:00,
2013-03-27 22:23:00,38.0,-99.9,-100.00,South,174,4.0,-999.0,-999,0.00,,,0.00,,2013-03-28 03:23:00,
2013-03-27 22:33:00,38.0,-99.9,-100.00,SSE,154,6.0,-999.0,-999,0.00,,,0.00,,2013-03-28 03:33:00,
2013-03-27 22:43:00,38.0,-99.9,-100.00,SSE,154,6.0,-999.0,-999,0.00,,,0.00,,2013-03-28 03:43:00,
2013-03-27 22:53:00,38.0,-99.9,-100.00,SSE,154,6.0,-999.0,-999,0.00,,,0.00,,2013-03-28 03:53:00,
2013-03-27 23:03:00,39.0,-99.9,-100.00,SE,142,5.0,-999.0,-999,0.00,,,0.00,,2013-03-28 04:03:00,
2013-03-27 23:12:00,39.0,-99.9,-100.00,SE,142,5.0,-999.0,-999,0.00,,,0.00,,2013-03-28 04:12:00,
2013-03-27 23:23:00,39.0,-99.9,-100.00,SE,142,5.0,-999.0,-999,0.00,,,0.00,,2013-03-28 04:23:00,
2013-03-27 23:32:00,38.0,-99.9,-100.00,SSE,154,4.0,-999.0,-999,0.00,,,0.00,,2013-03-28 04:32:00,
2013-03-27 23:42:00,38.0,-99.9,-100.00,SSE,154,4.0,-999.0,-999,0.00,,,0.00,,2013-03-28 04:42:00,
2013-03-27 23:53:00,38.0,-99.9,-100.00,SSE,154,4.0,-999.0,-999,0.00,,,0.00,,2013-03-28 04:53:00,